Newport, Oregon, United States (97365)
Lat: 44.64N, Lon: 124.05W
Wx Zone: ORZ002
Local Info
Past Weather Observations for Today

NOTE: This archive is for the closest National Weather Service station to Newport. Information may differ from the station used for current weather conditions.

Click here for Long-term Archive

Time Weather Temperature Dewpoint Humidity Pressure Winds Precip Visibility
18:15
Partly Cloudy
46°F / 8°C 46°F / 8°C 100% 29.89 in
(1012 mb)
E 3.5 mph
(E 6 kph)
- 7SM
17:55
Clear
50°F / 10°C 46°F / 8°C 88% 29.89 in
(1012 mb)
ESE 3.5 mph
(ESE 6 kph)
- 10SM
17:35
Clear
50°F / 10°C 48°F / 9°C 94% 29.89 in
(1012 mb)
E 3.5 mph
(E 6 kph)
- 10SM
17:15
Clear
50°F / 10°C 48°F / 9°C 94% 29.89 in
(1012 mb)
ENE 3.5 mph
(ENE 6 kph)
- 10SM
16:55
Clear
Hazy
55°F / 13°C 50°F / 10°C 82% 29.86 in
(1011 mb)
Calm - 5SM
16:35
Clear
55°F / 13°C 50°F / 10°C 82% 29.89 in
(1012 mb)
SSE 3.5 mph
(SSE 6 kph)
- 7SM
16:15
Clear
55°F / 13°C 50°F / 10°C 82% 29.89 in
(1012 mb)
SSE 4.6 mph
(SSE 7 kph)
- 7SM
15:35
Clear
57°F / 14°C 50°F / 10°C 77% 29.86 in
(1011 mb)
SW 6.9 mph
(SW 11 kph)
- 7SM
15:15
Clear
57°F / 14°C 50°F / 10°C 77% 29.86 in
(1011 mb)
SW 6.9 mph
(SW 11 kph)
- 7SM
14:55
Clear
57°F / 14°C 50°F / 10°C 77% 29.86 in
(1011 mb)
SW 9.2 mph
(SW 15 kph)
- 7SM
14:35
Clear
57°F / 14°C 50°F / 10°C 77% 29.86 in
(1011 mb)
SSW 6.9 mph
(SSW 11 kph)
- 10SM
14:15
Clear
57°F / 14°C 50°F / 10°C 77% 29.86 in
(1011 mb)
SW 10.4 mph
(SW 17 kph)
- 10SM
13:55
Clear
57°F / 14°C 50°F / 10°C 77% 29.86 in
(1011 mb)
SW 8.1 mph
(SW 13 kph)
- 10SM
13:35
Clear
59°F / 15°C 50°F / 10°C 72% 29.86 in
(1011 mb)
SW 8.1 mph
(SW 13 kph)
- 10SM
13:15
Clear
57°F / 14°C 50°F / 10°C 77% 29.86 in
(1011 mb)
SW 8.1 mph
(SW 13 kph)
- 10SM
12:55
Clear
59°F / 15°C 50°F / 10°C 72% 29.86 in
(1011 mb)
SW 8.1 mph
(SW 13 kph)
- 10SM
12:35
Partly Cloudy
57°F / 14°C 50°F / 10°C 77% 29.86 in
(1011 mb)
SW 8.1 mph
(SW 13 kph)
- 10SM
12:15
Mostly Cloudy
55°F / 13°C 50°F / 10°C 82% 29.86 in
(1011 mb)
SSW 5.8 mph
(SSW 9 kph)
- 10SM
11:55
Mostly Cloudy
57°F / 14°C 50°F / 10°C 77% 29.89 in
(1012 mb)
S 8.1 mph
(S 13 kph)
- 10SM
11:35
Mostly Cloudy
57°F / 14°C 50°F / 10°C 77% 29.89 in
(1012 mb)
S 8.1 mph
(S 13 kph)
- 10SM
11:15
Partly Cloudy
57°F / 14°C 52°F / 11°C 82% 29.89 in
(1012 mb)
SSE 6.9 mph
(SSE 11 kph)
- 10SM
10:55
Clear
55°F / 13°C 52°F / 11°C 88% 29.89 in
(1012 mb)
S 6.9 mph
(S 11 kph)
- 10SM
10:35
Clear
55°F / 13°C 50°F / 10°C 82% 29.89 in
(1012 mb)
S 5.8 mph
(S 9 kph)
- 10SM
10:15
Clear
55°F / 13°C 52°F / 11°C 88% 29.89 in
(1012 mb)
SE 5.8 mph
(SE 9 kph)
- 10SM
09:55
Clear
54°F / 12°C 50°F / 10°C 88% 29.89 in
(1012 mb)
SSE 6.9 mph
(SSE 11 kph)
- 10SM
09:35
Clear
54°F / 12°C 52°F / 11°C 94% 29.89 in
(1012 mb)
SE 5.8 mph
(SE 9 kph)
- 10SM
09:15
Clear
52°F / 11°C 50°F / 10°C 94% 29.89 in
(1012 mb)
SE 4.6 mph
(SE 7 kph)
- 10SM
08:55
Clear
52°F / 11°C 50°F / 10°C 94% 29.86 in
(1011 mb)
SE 4.6 mph
(SE 7 kph)
- 10SM
08:35
Clear
52°F / 11°C 50°F / 10°C 94% 29.86 in
(1011 mb)
SE 5.8 mph
(SE 9 kph)
- 10SM
08:15
Clear
50°F / 10°C 50°F / 10°C 100% 29.86 in
(1011 mb)
SE 3.5 mph
(SE 6 kph)
- 10SM
07:55
Clear
50°F / 10°C 50°F / 10°C 100% 29.86 in
(1011 mb)
SSE 3.5 mph
(SSE 6 kph)
- 10SM
07:35
Clear
50°F / 10°C 50°F / 10°C 100% 29.83 in
(1010 mb)
SSE 3.5 mph
(SSE 6 kph)
- 10SM
07:15
Clear
50°F / 10°C 50°F / 10°C 100% 29.83 in
(1010 mb)
SSE 4.6 mph
(SSE 7 kph)
- 10SM
06:55
Partly Cloudy
50°F / 10°C 50°F / 10°C 100% 29.83 in
(1010 mb)
SSE 4.6 mph
(SSE 7 kph)
- 10SM
06:35
Partly Cloudy
50°F / 10°C 50°F / 10°C 100% 29.83 in
(1010 mb)
SSE 5.8 mph
(SSE 9 kph)
- 10SM
06:15
Mostly Cloudy
50°F / 10°C 50°F / 10°C 100% 29.83 in
(1010 mb)
S 5.8 mph
(S 9 kph)
- 10SM
05:55
Partly Cloudy
50°F / 10°C 50°F / 10°C 100% 29.8 in
(1009 mb)
SSE 4.6 mph
(SSE 7 kph)
- 10SM
05:35
Clear
Light Rain
50°F / 10°C 50°F / 10°C 100% 29.8 in
(1009 mb)
Calm - 10SM
05:15
Partly Cloudy
50°F / 10°C 50°F / 10°C 100% 29.8 in
(1009 mb)
Calm - 10SM
04:55
Partly Cloudy
Light Rain
50°F / 10°C 48°F / 9°C 94% 29.8 in
(1009 mb)
SSE 3.5 mph
(SSE 6 kph)
0.01 in
(0.25 mm)
10SM
04:35
Mostly Cloudy
Drizzle
50°F / 10°C 48°F / 9°C 94% 29.8 in
(1009 mb)
Calm 0.01 in
(0.25 mm)
10SM
04:15
Mostly Cloudy
Rain
52°F / 11°C 48°F / 9°C 88% 29.8 in
(1009 mb)
Calm 0.01 in
(0.25 mm)
10SM
03:55
Overcast
Light Rain
52°F / 11°C 48°F / 9°C 88% 29.8 in
(1009 mb)
W 3.5 mph
(W 6 kph)
0.05 in
(1.27 mm)
7SM
03:35
Overcast
Light Rain
52°F / 11°C 48°F / 9°C 88% 29.8 in
(1009 mb)
W 9.2 mph
(W 15 kph)
0.04 in
(1.02 mm)
7SM
03:15
Overcast
Rain
52°F / 11°C 50°F / 10°C 94% 29.8 in
(1009 mb)
W 5.8 mph
(W 9 kph)
0.02 in
(0.51 mm)
7SM
02:55
Overcast
Rain
52°F / 11°C 50°F / 10°C 94% 29.8 in
(1009 mb)
W 10.4 mph
(W 17 kph)
0.07 in
(1.78 mm)
7SM
02:35
Overcast
Rain
52°F / 11°C 50°F / 10°C 94% 29.77 in
(1008 mb)
W 11.5 mph
(W 19 kph)
0.03 in
(0.76 mm)
7SM
02:15
Overcast
Light Rain
52°F / 11°C 50°F / 10°C 94% 29.77 in
(1008 mb)
NW 9.2 mph
(NW 15 kph)
0.02 in
(0.51 mm)
7SM
01:55
Overcast
Rain
52°F / 11°C 52°F / 11°C 100% 29.77 in
(1008 mb)
W 12.7 mph
(W 20 kph)
0.24 in
(6.10 mm)
3SM
01:35
Overcast
Rain
54°F / 12°C 54°F / 12°C 100% 29.77 in
(1008 mb)
NW 11.5 mph
(NW 19 kph)
0.21 in
(5.33 mm)
2 1/2SM
01:15
Overcast
Heavy Rain
54°F / 12°C 54°F / 12°C 100% 29.77 in
(1008 mb)
Calm 0.08 in
(2.03 mm)
2 1/2SM
00:55
Overcast
Drizzle
54°F / 12°C 54°F / 12°C 100% 29.77 in
(1008 mb)
Calm 0.02 in
(0.51 mm)
7SM
00:35
Overcast
Drizzle
54°F / 12°C 54°F / 12°C 100% 29.77 in
(1008 mb)
Calm 0.02 in
(0.51 mm)
7SM
00:15
Overcast
Drizzle
54°F / 12°C 54°F / 12°C 100% 29.77 in
(1008 mb)
Calm 0.01 in
(0.25 mm)
5SM
Time Weather Temperature Dewpoint Humidity Pressure Winds Precip Visibility


Weather for websites

WeatherForYou.com, LLC is not responsible for any damages or problems caused by this service. Current weather conditions are obtained from the closest station including government and personal stations which may have varying degrees of accuracy. Weather forecasts are derived from the NOAA NDFD. Like all things, this site belongs to Jesus Christ... He just trusts me to maintain it. If you have any questions or comments email webmaster@weatherforyou.com

Copyright © 2014, WeatherForYou.com LLC. All rights reserved.